Regional Weather Roundup
Issued by NWS

Home | Current Version | Previous Version | Text Only | Print | Product List | Glossary Off
Versions: 1 2 3 4 5 6 7 8 9 10 11 12 13 14 15 16 17 18 19 20 21 22 23 24 25 26 27 28 29 30 31 32 33 34 35 36 37 38 39 40 41 42 43 44 45 46 47 48 49 50

000
ASUS43 KMPX 301210
RWRMN
WEATHER ROUNDUP FOR MINNESOTA
NATIONAL WEATHER SERVICE TWIN CITIES/CHANHASSEN MN
700 AM CDT TUE JUN 30 2015


NOTE: "FAIR" INDICATES FEW OR NO CLOUDS BELOW 12,000 FEET WITH NO
SIGNIFICANT WEATHER AND/OR OBSTRUCTIONS TO VISIBILITY. N/A MEANS
CURRENT SKY AND/OR WEATHER CONDITIONS ARE NOT AVAILABLE.

MNZ060>063-068>070-301300-
   Twin Cities Metro

CITY           SKY/WX    TMP DP  RH WIND       PRES   REMARKS
TWIN CITIES    MOSUNNY   63  60  90 N7        29.90R
6HR MIN TEMP:  62; 6HR MAX TEMP:  66;

ST PAUL        SUNNY     64  61  90 N7        29.90R FOG
CRYSTAL        SUNNY     64  59  83 N8        29.90R HAZE
BLAINE         SUNNY     64  63  94 N8        29.91R
LAKEVILLE      SUNNY     61  61 100 VRB2      29.90R
EDEN PRAIRIE   SUNNY     63  60  90 N6        29.90R FOG
6HR MIN TEMP:  62; 6HR MAX TEMP:  65;

SOUTH ST PAUL  SUNNY     64  61  88 N6        29.90R
LAKE ELMO      FAIR      61  61 100 NE3       29.91R FOG
$$
MNZ001>005-007-008-013>017-022>024-027-028-301300-
   Northwest Minnesota

CITY           SKY/WX    TMP DP  RH WIND       PRES   REMARKS
BEMIDJI        SUNNY     54  53  97 NE3       29.98R
HALLOCK        MOSUNNY   55  55 100 E3        29.96S
ROSEAU         SUNNY     55  52  88 SE5       29.99S
WARROAD        MOSUNNY   59  55  88 E8        29.99F
THIEF RVR FALL SUNNY     57  54  88 E7        29.98S
CROOKSTON      SUNNY     57  57 100 E9        29.96S
FOSSTON        FAIR      55  54  94 CALM      29.98S FOG
DETROIT LAKES  SUNNY     59  59 100 CALM      29.97S FOG
MOORHEAD       SUNNY     57  57 100 CALM      29.96R FOG
PARK RAPIDS    SUNNY     58  55  90 CALM      29.97R FOG
MAHNOMEN       FOG       55  55  99 NE3       29.97S VSB 1/4
$$
MNZ006-009>011-018-025>026-301300-
   North Central Minnesota

CITY           SKY/WX    TMP DP  RH WIND       PRES   REMARKS
BAUDETTE       MOSUNNY   55  52  89 E3        29.99R
FLAG ISLAND    MOSUNNY   61  52  72 E3        29.98S
INTL FALLS     MOSUNNY   56  51  84 CALM      29.99S
6HR MIN TEMP:  46; 6HR MAX TEMP:  59;

WASKISH        MOSUNNY   55  54  94 NE6       29.99R
BIG FORK       SUNNY     54  52  94 CALM      29.99R
LONGVILLE      MOSUNNY   57  54  88 CALM      29.97R
GRAND RAPIDS   MOSUNNY   55  52  88 N3        29.98R
CRANE LAKE     CLOUDY    55  48  76 NE3       30.00R
ORR            CLOUDY    55  52  88 CALM      29.96R
COOK           CLOUDY    55  50  82 E3        29.98R
WALKER         PTSUNNY   55  55  98 CALM      29.98R
$$
MNZ012-019>021-037-301300-
   Northeast Minnesota

CITY           SKY/WX    TMP DP  RH WIND       PRES   REMARKS
DULUTH         CLOUDY    57  53  86 E14       29.95R
6HR MIN TEMP:  57; 6HR MAX TEMP:  64;

ELY            CLOUDY    55  46  71 NE7       29.97S
HIBBING        SUNNY     55  52  89 NE5       29.96R
EVELETH        MOSUNNY   54  52  94 NE6       29.97S
DULUTH HARBOR  CLOUDY    61  57  88 NE22      29.95R
TWO HARBORS    CLOUDY    57  54  88 E7        29.94R
GRAND MARAIS     N/A     53  41  63 E5        29.95R
G MARAIS ARPRT SUNNY     46  39  76 N12       29.96S
$$
MNZ029>031-032-039>041-046>048-054>057-064-301300-
   West Central Minnesota

CITY           SKY/WX    TMP DP  RH WIND       PRES   REMARKS
FERGUS FALLS   SUNNY     61  61 100 E5        29.95R
WHEATON          N/A     57  57 100 CALM      29.97S FOG
MORRIS         SUNNY     59  57  94 CALM      29.94S FOG
ALEXANDRIA     SUNNY     61  57  87 CALM      29.97R
ELBOW LAKE     FAIR      62  58  88 E3        29.95S
WADENA         SUNNY     55  55 100 CALM      29.96R FOG
GLENWOOD       SUNNY     59  57  94 NE5       29.96R
APPLETON         N/A     61  57  88 CALM      29.94R FOG
BENSON         SUNNY     61  57  88 CALM      29.94F
ORTONVILLE     SUNNY     61  59  94 N3        29.95S FOG
MADISON        SUNNY     61  59  94 W5        29.95S FOG
WILLMAR        FAIR      63  61  94 N7        29.95S
$$
MNZ033>034-036-042>043-049>051-058-059-301300-
   Central Minnesota

CITY           SKY/WX    TMP DP  RH WIND       PRES   REMARKS
ST CLOUD       SUNNY     59  57  93 N5        29.93R FOG
6HR MIN TEMP:  58; 6HR MAX TEMP:  63;

SAUK CENTRE    FAIR      59  57  93 CALM      29.95S
PAYNESVILLE    SUNNY     57  56  97 CALM      29.95R
AITKIN         MOSUNNY   57  52  82 N5        29.94R
PINE RIVER     SUNNY     55  54  94 CALM      29.99S
BRAINERD       SUNNY     59  56  89 NE6       29.95R FOG
STAPLES        SUNNY     55  55 100 N3        29.96R FOG
LONG PRAIRIE   FAIR      57  55  94 CALM      29.96R
LITTLE FALLS   SUNNY     54  52  94 CALM      29.94S FOG
LITCHFIELD     SUNNY     64  63  94 N5        29.94R
BUFFALO        SUNNY     61  56  84 N5        29.94R
MAPLE LAKE     SUNNY     62  59  91 N3        29.94R
$$
MNZ037-044-045-052-053-301300-
   East Central Minnesota

CITY           SKY/WX    TMP DP  RH WIND       PRES   REMARKS
PRINCETON      SUNNY     63  57  82 N6        29.93R
MORA           MOSUNNY   55  54  94 CALM      29.95R
CAMBRIDGE      MOSUNNY   63  54  72 N3        29.91R
MOOSE LAKE     CLOUDY    55  55 100 NE5       29.92R
HINCKLEY       FAIR      59  57  94 N3        29.93R
CLOQUET        CLOUDY    59  55  88 NE5       29.94R
MCGREGOR       MOSUNNY   57  54  88 N3        29.96R
$$
MNZ071>073-080-081-089-090-097-098-301300-
   Southwest Minnesota

CITY           SKY/WX    TMP DP  RH WIND       PRES   REMARKS
MONTEVIDEO     SUNNY     61  61 100 CALM      29.95S FOG
GRANITE FALLS  MOSUNNY   60  59  97 CALM      29.95R FOG
CANBY          MOSUNNY   61  60  95 W5        29.97R FOG
MARSHALL       MOSUNNY   61  55  82 NW7         N/A
REDWOOD FALLS  SUNNY     64  61  90 N3        29.93R FOG
OLIVIA         SUNNY     59  55  88 N3        29.93R
PIPESTONE      PTSUNNY   63  61  94 CALM      29.96F
WINDOM         SUNNY     63  61  94 CALM      29.94S FOG
WORTHINGTON    PTSUNNY   63  57  82 NW6       29.96R
JACKSON        MOSUNNY   63  63 100 NW5       29.95R FOG
TRACY          MOSUNNY   63  62  97 NW5       29.96R FOG
SLAYTON        MOSUNNY   61  61 100 CALM      29.98R
$$
MNZ065>067-074>077-082>085-091>093-301300-
   South Central Minnesota

CITY           SKY/WX    TMP DP  RH WIND       PRES   REMARKS
MANKATO        SUNNY     63  61  94 N7        29.91R
NEW ULM        SUNNY     64  63  94 N5        29.92R
ST JAMES       SUNNY     64  63  94 W6        29.94R FOG
FAIRMONT       SUNNY     64  57  77 NW7       29.92R
GLENCOE        SUNNY     62  60  96 N5        29.92R
FARIBAULT      SUNNY     63  61  94 CALM      29.90R FOG
OWATONNA       SUNNY     59  57  94 CALM      29.90R FOG
WASECA         SUNNY     63  61  94 N5        29.92R FOG
ALBERT LEA     SUNNY     64  63  94 N3        29.90R FOG
$$
MNZ078>079-086>088-094>096-301300-
   Southeast Minnesota

CITY           SKY/WX    TMP DP  RH WIND       PRES   REMARKS
ROCHESTER      SUNNY     60  58  92 NW5       29.90R FOG
6HR MIN TEMP:  57; 6HR MAX TEMP:  60; 6HR PCP: TRACE;

RED WING       MOSUNNY   61  59  94 CALM      29.88R FOG
STANTON        MOSUNNY   59  57  94 CALM      29.88R
DODGE CENTER   SUNNY     61  59  94 N7        29.89R FOG
WINONA         CLOUDY    61  59  94 CALM      29.88R FOG
AUSTIN         SUNNY     59  57  94 NW3       29.89R FOG
PRESTON        PTSUNNY   58  56  94 NW5       29.89R FOG
$$
ABBREVIATIONS USED IN REMARKS
   TC - TEMPERATURES IN CELSIUS
  WCI - WIND CHILL INDEX
   HX - HEAT INDEX
  VSB - VISIBILITY
$$



USA.gov is the U.S. government's official web portal to all federal, state and local government web resources and services.